Tracking 23757 objects as of 25-Oct-2021
HD Live streaming from Space Station
objects crossing your sky now

BPA 1/SL-24 R/B

Track BPA 1/SL-24 R/B now!
10-day predictions


NORAD ID: 36600
Int'l Code: 2010-028C
Perigee: 720.9 km
Apogee: 1,274.2 km
Inclination: 98.3 °
Period: 104.9 minutes
Semi major axis: 7368 km
RCS: 6.6389 m2 (large)
Launch date: June 15, 2010
Source: Commonwealth of Independent States (former USSR) (CIS)
Launch site: Orenburg, Russia (OREN)

Note: This is a ROCKET BODY
aabbcc
Your satellite tracking list
Your tracking list is empty




NASA's NSSDC Master Catalog

Two Line Element Set (TLE):
1 36600U 10028C   21297.75917039 -.00000026  00000-0  44748-5 0  9999
2 36600  98.2818 351.2946 0375483 146.8881 325.8270 13.72556730569094
Source of the keplerian elements: AFSPC